Darstellungsparameter: Aktuell verwendete Einstellungen:
Skalierung der Graphiken ... ?
xyx+y,   Skalierungsfaktor:      Skalierung: Modus: x, Faktor: 1
Darstellungszeitraum ... ?
Vom - - bis: - -   Zeitraum: 23.09.2015 - 23.09.2015
Min/Max/Avg-Anzeige ... ?
Zeige MMA aktuell
Zeige MMA Monat
Zeige MMA alles
Zeige --A aktuell
Zeige --A Monat
Zeige --A alles
Keine MMA-Anzeige
MMA:
Average (ber die Originaldaten)
MMA-Basis: 23.09.2015 - 23.09.2015
Quicknavigation für Darstellung... ?
Tage:      1T, 2T, 3T, 5T -1T -2T -3T -5T +1T +2T +3T +5T
Wochen: 1W, 2W, 3W -1W -2W -3W +1W +2W +3W
Monate: 1M, 3M, 6M -1M -3M -6M +1M +3M +6M
Jahre:    1J, 3J, 5J, 10J -1J -3J -5J -10J +1J +3J +5J +10J
Nutze für die Darstellung ... ?
Originaldaten oder Mittelwerte auf ...
Stundenbasis Tagesbasis Wochenbasis
Monatsbasis Jahresbasis      Datenbasis: Original-Daten
Darstellen als:
Statistik (Auto) Statistik J:M      Darstellung:
Zur Graphik,    zurück zur Übersicht aller Sensoren.
 
Tabellarische Datenbersicht: ?
 
Sensor: Nr:Datum:Temp:Abs-Feuchte:Windchill:Wind:
Aussen-T/F 1 23-09-2015 00:00:00 9.9 C 8.96 g/m*3 9.9 C 0 km/h
2 23-09-2015 00:05:00 9.9 C 8.96 g/m*3 9.9 C 0 km/h
3 23-09-2015 00:10:00 9.9 C 8.96 g/m*3 9.9 C 0 km/h
4 23-09-2015 00:15:00 9.9 C 8.96 g/m*3 9.9 C 0 km/h
5 23-09-2015 00:20:00 9.9 C 8.96 g/m*3 9.9 C 0 km/h
6 23-09-2015 00:25:00 9.9 C 8.96 g/m*3 9.9 C 0 km/h
7 23-09-2015 00:30:00 9.9 C 8.96 g/m*3 9.9 C 0 km/h
8 23-09-2015 00:35:00 9.9 C 8.96 g/m*3 9.25 C 6.4 km/h
9 23-09-2015 00:40:00 9.9 C 8.96 g/m*3 9.9 C 1.6 km/h
10 23-09-2015 00:45:00 9.8 C 8.91 g/m*3 9.8 C 1.6 km/h
11 23-09-2015 00:50:00 9.8 C 8.91 g/m*3 9.8 C 1.6 km/h
12 23-09-2015 00:55:00 9.8 C 8.91 g/m*3 9.8 C 0 km/h
13 23-09-2015 01:00:00 9.9 C 8.96 g/m*3 9.9 C 0 km/h
14 23-09-2015 01:05:00 10 C 9.02 g/m*3 10 C 0 km/h
15 23-09-2015 01:10:00 10 C 9.02 g/m*3 10 C 1.6 km/h
16 23-09-2015 01:15:00 10 C 9.02 g/m*3 10 C 0 km/h
17 23-09-2015 01:20:00 10 C 9.02 g/m*3 10 C 0 km/h
18 23-09-2015 01:25:00 10 C 9.02 g/m*3 10 C 0 km/h
19 23-09-2015 01:30:00 10.1 C 9.08 g/m*3 10.1 C 0 km/h
20 23-09-2015 01:35:00 10.1 C 9.08 g/m*3 10.1 C 0 km/h
21 23-09-2015 01:40:00 10.1 C 9.08 g/m*3 10.1 C 0 km/h
22 23-09-2015 01:45:00 10.2 C 9.14 g/m*3 10.2 C 0 km/h
23 23-09-2015 01:50:00 10.2 C 9.14 g/m*3 10.2 C 1.6 km/h
24 23-09-2015 01:55:00 10.2 C 9.14 g/m*3 10.2 C 1.6 km/h
25 23-09-2015 02:00:00 10.2 C 9.14 g/m*3 10.2 C 0 km/h
Sensor: Nr:Datum:Temp:Abs-Feuchte:Windchill:Wind:
Aussen-T/F 26 23-09-2015 02:05:00 10.2 C 9.14 g/m*3 10.2 C 0 km/h
27 23-09-2015 02:10:00 10.2 C 9.14 g/m*3 10.2 C 1.6 km/h
28 23-09-2015 02:15:00 10.3 C 9.1 g/m*3 10.3 C 1.6 km/h
29 23-09-2015 02:20:00 10.3 C 9.1 g/m*3 10.3 C 3.2 km/h
30 23-09-2015 02:25:00 10.3 C 9 g/m*3 10.3 C 0 km/h
31 23-09-2015 02:30:00 10.3 C 9 g/m*3 10.3 C 0 km/h
32 23-09-2015 02:35:00 10.3 C 9 g/m*3 10.3 C 0 km/h
33 23-09-2015 02:40:00 10.3 C 9 g/m*3 10.3 C 0 km/h
34 23-09-2015 02:45:00 10.2 C 8.95 g/m*3 10.2 C 0 km/h
35 23-09-2015 02:50:00 10.2 C 9.04 g/m*3 10.2 C 0 km/h
36 23-09-2015 02:55:00 10.2 C 9.04 g/m*3 10.2 C 0 km/h
37 23-09-2015 03:00:00 10.1 C 8.98 g/m*3 10.1 C 0 km/h
38 23-09-2015 03:05:00 10.2 C 9.04 g/m*3 10.2 C 0 km/h
39 23-09-2015 03:10:00 10.2 C 9.04 g/m*3 10.2 C 0 km/h
40 23-09-2015 03:15:00 10.2 C 9.04 g/m*3 10.2 C 0 km/h
41 23-09-2015 03:20:00 10.1 C 8.98 g/m*3 10.1 C 0 km/h
42 23-09-2015 03:25:00 10.1 C 9.08 g/m*3 10.1 C 0 km/h
43 23-09-2015 03:30:00 10.1 C 9.08 g/m*3 10.1 C 0 km/h
44 23-09-2015 03:35:00 10.1 C 9.08 g/m*3 10.1 C 0 km/h
45 23-09-2015 03:40:00 10.2 C 9.14 g/m*3 10.2 C 0 km/h
46 23-09-2015 03:45:00 10.2 C 9.14 g/m*3 10.2 C 0 km/h
47 23-09-2015 03:50:00 10.2 C 9.14 g/m*3 10.2 C 0 km/h
48 23-09-2015 03:55:00 10.2 C 9.14 g/m*3 10.2 C 0 km/h
49 23-09-2015 04:00:00 10.2 C 9.14 g/m*3 10.2 C 0 km/h
50 23-09-2015 04:05:00 10.2 C 9.14 g/m*3 10.2 C 0 km/h
Sensor: Nr:Datum:Temp:Abs-Feuchte:Windchill:Wind:
Aussen-T/F 51 23-09-2015 04:10:00 10.3 C 9.19 g/m*3 10.3 C 0 km/h
52 23-09-2015 04:15:00 10.3 C 9.19 g/m*3 10.3 C 0 km/h
53 23-09-2015 04:20:00 10.3 C 9.19 g/m*3 10.3 C 0 km/h
54 23-09-2015 04:25:00 10.3 C 9.19 g/m*3 10.3 C 0 km/h
55 23-09-2015 04:30:00 10.3 C 9.19 g/m*3 10.3 C 0 km/h
56 23-09-2015 04:35:00 10.3 C 9.19 g/m*3 10.3 C 0 km/h
57 23-09-2015 04:40:00 10.3 C 9.19 g/m*3 10.3 C 0 km/h
58 23-09-2015 04:45:00 10.3 C 9.19 g/m*3 10.3 C 0 km/h
59 23-09-2015 04:50:00 10.3 C 9.19 g/m*3 10.3 C 0 km/h
60 23-09-2015 04:55:00 10.3 C 9.19 g/m*3 10.3 C 0 km/h
61 23-09-2015 05:00:00 10.3 C 9.19 g/m*3 10.3 C 0 km/h
62 23-09-2015 05:05:00 10.3 C 9.19 g/m*3 10.3 C 0 km/h
63 23-09-2015 05:10:00 10.3 C 9.19 g/m*3 10.3 C 0 km/h
64 23-09-2015 05:15:00 10.2 C 9.14 g/m*3 10.2 C 0 km/h
65 23-09-2015 05:20:00 10.2 C 9.14 g/m*3 10.2 C 3.2 km/h
66 23-09-2015 05:25:00 10.2 C 9.14 g/m*3 10.2 C 0 km/h
67 23-09-2015 05:30:00 10.3 C 9.19 g/m*3 10.3 C 0 km/h
68 23-09-2015 05:35:00 10.3 C 9.19 g/m*3 10.3 C 0 km/h
69 23-09-2015 05:40:00 10.3 C 9.19 g/m*3 10.3 C 0 km/h
70 23-09-2015 05:45:00 10.3 C 9.19 g/m*3 10.3 C 0 km/h
71 23-09-2015 05:50:00 10.3 C 9.19 g/m*3 10.3 C 0 km/h
72 23-09-2015 05:55:00 10.3 C 9.19 g/m*3 10.3 C 0 km/h
73 23-09-2015 06:00:00 10.3 C 9.19 g/m*3 10.3 C 0 km/h
74 23-09-2015 06:05:00 10.3 C 9.19 g/m*3 10.3 C 0 km/h
75 23-09-2015 06:10:00 10.3 C 9.19 g/m*3 10.3 C 1.6 km/h
Sensor: Nr:Datum:Temp:Abs-Feuchte:Windchill:Wind:
Aussen-T/F 76 23-09-2015 06:15:00 10.4 C 9.16 g/m*3 10.4 C 0 km/h
77 23-09-2015 06:20:00 10.4 C 9.16 g/m*3 10.4 C 0 km/h
78 23-09-2015 06:25:00 10.5 C 9.21 g/m*3 10.5 C 0 km/h
79 23-09-2015 06:30:00 10.5 C 9.21 g/m*3 10.5 C 1.6 km/h
80 23-09-2015 06:35:00 10.5 C 9.12 g/m*3 10.5 C 1.6 km/h
81 23-09-2015 06:40:00 10.6 C 9.17 g/m*3 10.6 C 1.6 km/h
82 23-09-2015 06:45:00 10.6 C 9.17 g/m*3 10.6 C 1.6 km/h
83 23-09-2015 06:50:00 10.7 C 9.23 g/m*3 10.7 C 1.6 km/h
84 23-09-2015 06:55:00 10.7 C 9.23 g/m*3 10.7 C 1.6 km/h
85 23-09-2015 07:00:00 10.7 C 9.23 g/m*3 10.7 C 0 km/h
86 23-09-2015 07:05:00 10.7 C 9.23 g/m*3 10.7 C 1.6 km/h
87 23-09-2015 07:10:00 10.7 C 9.23 g/m*3 10.7 C 4.8 km/h
88 23-09-2015 07:15:00 10.7 C 9.23 g/m*3 10.7 C 1.6 km/h
89 23-09-2015 07:20:00 10.7 C 9.23 g/m*3 10.7 C 0 km/h
90 23-09-2015 07:25:00 10.7 C 9.23 g/m*3 10.7 C 0 km/h
91 23-09-2015 07:30:00 10.7 C 9.23 g/m*3 10.7 C 0 km/h
92 23-09-2015 07:35:00 10.7 C 9.23 g/m*3 10.7 C 1.6 km/h
93 23-09-2015 07:40:00 10.6 C 9.17 g/m*3 10.6 C 4.8 km/h
94 23-09-2015 07:45:00 10.7 C 9.23 g/m*3 10.7 C 4.8 km/h
95 23-09-2015 07:50:00 10.7 C 9.23 g/m*3 10.7 C 0 km/h
96 23-09-2015 07:55:00 10.7 C 9.23 g/m*3 10.7 C 1.6 km/h
97 23-09-2015 08:00:00 10.7 C 9.23 g/m*3 10.7 C 1.6 km/h
98 23-09-2015 08:05:00 10.7 C 9.23 g/m*3 10.7 C 0 km/h
99 23-09-2015 08:10:00 10.7 C 9.23 g/m*3 10.7 C 0 km/h
100 23-09-2015 08:15:00 10.8 C 9.29 g/m*3 10.8 C 4.8 km/h
Sensor: Nr:Datum:Temp:Abs-Feuchte:Windchill:Wind:
Aussen-T/F 101 23-09-2015 08:20:00 10.8 C 9.29 g/m*3 10.8 C 3.2 km/h
102 23-09-2015 08:25:00 10.8 C 9.29 g/m*3 10.8 C 4.8 km/h
103 23-09-2015 08:30:00 10.8 C 9.29 g/m*3 10.8 C 0 km/h
104 23-09-2015 08:35:00 10.8 C 9.29 g/m*3 10.8 C 1.6 km/h
105 23-09-2015 08:40:00 10.9 C 9.25 g/m*3 10.9 C 3.2 km/h
106 23-09-2015 08:45:00 10.9 C 9.25 g/m*3 10.9 C 3.2 km/h
107 23-09-2015 08:50:00 10.9 C 9.25 g/m*3 10.9 C 3.2 km/h
108 23-09-2015 08:55:00 10.9 C 9.25 g/m*3 10.9 C 1.6 km/h
109 23-09-2015 09:00:00 10.9 C 9.25 g/m*3 10.9 C 0 km/h
110 23-09-2015 09:05:00 10.9 C 9.25 g/m*3 10.9 C 0 km/h
111 23-09-2015 09:10:00 10.9 C 9.25 g/m*3 10.9 C 0 km/h
112 23-09-2015 09:15:00 10.9 C 9.25 g/m*3 10.9 C 0 km/h
113 23-09-2015 09:20:00 11 C 9.31 g/m*3 11 C 0 km/h
114 23-09-2015 09:25:00 11.2 C 9.43 g/m*3 11.2 C 8.1 km/h
115 23-09-2015 09:30:00 11.3 C 9.49 g/m*3 11.3 C 3.2 km/h
116 23-09-2015 09:35:00 11.3 C 9.38 g/m*3 11.3 C 6.4 km/h
117 23-09-2015 09:40:00 11.4 C 9.44 g/m*3 11.4 C 4.8 km/h
118 23-09-2015 09:45:00 11.6 C 9.56 g/m*3 11.6 C 9.7 km/h
119 23-09-2015 09:50:00 11.6 C 9.46 g/m*3 11.6 C 6.4 km/h
120 23-09-2015 09:55:00 11.7 C 9.52 g/m*3 11.7 C 6.4 km/h
121 23-09-2015 10:00:00 11.7 C 9.52 g/m*3 11.7 C 4.8 km/h
122 23-09-2015 10:05:00 11.7 C 9.52 g/m*3 11.7 C 0 km/h
123 23-09-2015 10:10:00 11.7 C 9.52 g/m*3 11.7 C 0 km/h
124 23-09-2015 10:15:00 11.7 C 9.52 g/m*3 11.7 C 4.8 km/h
125 23-09-2015 10:20:00 11.8 C 9.58 g/m*3 11.8 C 3.2 km/h
Sensor: Nr:Datum:Temp:Abs-Feuchte:Windchill:Wind:
Aussen-T/F 126 23-09-2015 10:25:00 11.9 C 9.64 g/m*3 11.9 C 6.4 km/h
127 23-09-2015 10:30:00 11.9 C 9.64 g/m*3 11.9 C 4.8 km/h
128 23-09-2015 10:35:00 11.9 C 9.74 g/m*3 11.9 C 0 km/h
129 23-09-2015 10:40:00 11.9 C 9.64 g/m*3 11.9 C 1.6 km/h
130 23-09-2015 10:45:00 11.9 C 9.74 g/m*3 11.9 C 6.4 km/h
131 23-09-2015 10:50:00 11.9 C 9.74 g/m*3 11.9 C 4.8 km/h
132 23-09-2015 10:55:00 11.9 C 9.74 g/m*3 11.9 C 4.8 km/h
133 23-09-2015 11:00:00 12 C 9.91 g/m*3 12 C 3.2 km/h
134 23-09-2015 11:05:00 12.1 C 9.97 g/m*3 12.1 C 1.6 km/h
135 23-09-2015 11:10:00 12.1 C 9.97 g/m*3 12.1 C 6.4 km/h
136 23-09-2015 11:15:00 12.2 C 10.04 g/m*3 12.2 C 4.8 km/h
137 23-09-2015 11:20:00 12.3 C 10.1 g/m*3 12.3 C 4.8 km/h
138 23-09-2015 11:25:00 12.4 C 10.05 g/m*3 12.4 C 4.8 km/h
139 23-09-2015 11:30:00 12.5 C 10.11 g/m*3 12.5 C 4.8 km/h
140 23-09-2015 11:35:00 12.6 C 10.18 g/m*3 12.6 C 3.2 km/h
141 23-09-2015 11:40:00 12.7 C 10.24 g/m*3 12.7 C 8.1 km/h
142 23-09-2015 11:45:00 12.7 C 10.24 g/m*3 12.7 C 4.8 km/h
143 23-09-2015 11:50:00 12.8 C 10.19 g/m*3 12.8 C 3.2 km/h
144 23-09-2015 11:55:00 12.9 C 10.26 g/m*3 12.9 C 3.2 km/h
145 23-09-2015 12:00:00 12.9 C 10.26 g/m*3 12.9 C 1.6 km/h
146 23-09-2015 12:05:00 13.1 C 10.27 g/m*3 13.1 C 3.2 km/h
147 23-09-2015 12:10:00 13.2 C 10.33 g/m*3 13.2 C 3.2 km/h
148 23-09-2015 12:15:00 13.3 C 10.4 g/m*3 13.3 C 1.6 km/h
149 23-09-2015 12:20:00 13.4 C 10.46 g/m*3 13.4 C 3.2 km/h
150 23-09-2015 12:25:00 13.5 C 10.53 g/m*3 13.5 C 3.2 km/h
Sensor: Nr:Datum:Temp:Abs-Feuchte:Windchill:Wind:
Aussen-T/F 151 23-09-2015 12:30:00 13.6 C 10.47 g/m*3 13.6 C 6.4 km/h
152 23-09-2015 12:35:00 13.7 C 10.54 g/m*3 13.7 C 3.2 km/h
153 23-09-2015 12:40:00 14 C 10.86 g/m*3 14 C 9.7 km/h
154 23-09-2015 12:45:00 14.3 C 10.81 g/m*3 14.3 C 6.4 km/h
155 23-09-2015 12:50:00 14.4 C 10.75 g/m*3 14.4 C 11.3 km/h
156 23-09-2015 12:55:00 14.4 C 10.75 g/m*3 14.4 C 6.4 km/h
157 23-09-2015 13:00:00 14.4 C 10.51 g/m*3 14.4 C 9.7 km/h
158 23-09-2015 13:05:00 14.4 C 10.63 g/m*3 14.4 C 12.9 km/h
159 23-09-2015 13:10:00 14.4 C 10.63 g/m*3 14.4 C 12.9 km/h
160 23-09-2015 13:15:00 14.5 C 10.82 g/m*3 14.5 C 11.3 km/h
161 23-09-2015 13:20:00 14.7 C 10.83 g/m*3 14.7 C 12.9 km/h
162 23-09-2015 13:25:00 14.6 C 10.64 g/m*3 14.6 C 11.3 km/h
163 23-09-2015 13:30:00 14.4 C 10.63 g/m*3 14.4 C 11.3 km/h
164 23-09-2015 13:35:00 14.2 C 10.62 g/m*3 14.2 C 14.5 km/h
165 23-09-2015 13:40:00 14 C 10.49 g/m*3 14 C 11.3 km/h
166 23-09-2015 13:45:00 14 C 10.61 g/m*3 14 C 9.7 km/h
167 23-09-2015 13:50:00 14.2 C 10.75 g/m*3 14.2 C 11.3 km/h
168 23-09-2015 13:55:00 14.4 C 10.88 g/m*3 14.4 C 16.1 km/h
169 23-09-2015 14:00:00 14.8 C 11.02 g/m*3 14.8 C 12.9 km/h
170 23-09-2015 14:05:00 14.9 C 10.96 g/m*3 14.9 C 9.7 km/h
171 23-09-2015 14:10:00 14.8 C 10.51 g/m*3 14.8 C 9.7 km/h
172 23-09-2015 14:15:00 14.7 C 10.7 g/m*3 14.7 C 14.5 km/h
173 23-09-2015 14:20:00 14.5 C 10.57 g/m*3 14.5 C 12.9 km/h
174 23-09-2015 14:25:00 14.3 C 10.44 g/m*3 14.3 C 12.9 km/h
175 23-09-2015 14:30:00 14.4 C 10.63 g/m*3 14.4 C 16.1 km/h
Sensor: Nr:Datum:Temp:Abs-Feuchte:Windchill:Wind:
Aussen-T/F 176 23-09-2015 14:35:00 14.3 C 10.69 g/m*3 14.3 C 8.1 km/h
177 23-09-2015 14:40:00 14.2 C 10.75 g/m*3 14.2 C 9.7 km/h
178 23-09-2015 14:45:00 14.2 C 10.75 g/m*3 14.2 C 9.7 km/h
179 23-09-2015 14:50:00 14.2 C 10.75 g/m*3 14.2 C 12.9 km/h
180 23-09-2015 14:55:00 14.2 C 10.62 g/m*3 14.2 C 12.9 km/h
181 23-09-2015 15:00:00 14.2 C 10.75 g/m*3 14.2 C 11.3 km/h
182 23-09-2015 15:05:00 14.3 C 10.69 g/m*3 14.3 C 12.9 km/h
183 23-09-2015 15:10:00 14.1 C 10.68 g/m*3 14.1 C 12.9 km/h
184 23-09-2015 15:15:00 13.9 C 10.67 g/m*3 13.9 C 12.9 km/h
185 23-09-2015 15:20:00 13.6 C 10.71 g/m*3 13.6 C 9.7 km/h
186 23-09-2015 15:25:00 13.5 C 10.64 g/m*3 13.5 C 4.8 km/h
187 23-09-2015 15:30:00 13.4 C 10.69 g/m*3 13.4 C 11.3 km/h
188 23-09-2015 15:35:00 13.4 C 10.69 g/m*3 13.4 C 9.7 km/h
189 23-09-2015 15:40:00 13.6 C 10.95 g/m*3 13.6 C 9.7 km/h
190 23-09-2015 15:45:00 13.6 C 10.95 g/m*3 13.6 C 12.9 km/h
191 23-09-2015 15:50:00 13.8 C 10.96 g/m*3 13.8 C 11.3 km/h
192 23-09-2015 15:55:00 13.8 C 10.96 g/m*3 13.8 C 9.7 km/h
193 23-09-2015 16:00:00 13.8 C 10.96 g/m*3 13.8 C 11.3 km/h
194 23-09-2015 16:05:00 13.9 C 11.03 g/m*3 13.9 C 8.1 km/h
195 23-09-2015 16:10:00 13.9 C 10.91 g/m*3 13.9 C 12.9 km/h
196 23-09-2015 16:15:00 13.8 C 10.84 g/m*3 13.8 C 6.4 km/h
197 23-09-2015 16:20:00 13.6 C 10.71 g/m*3 13.6 C 8.1 km/h
198 23-09-2015 16:25:00 13.4 C 10.69 g/m*3 13.4 C 1.6 km/h
199 23-09-2015 16:30:00 13.3 C 10.63 g/m*3 13.3 C 8.1 km/h
200 23-09-2015 16:35:00 13.2 C 10.68 g/m*3 13.2 C 9.7 km/h
Sensor: Nr:Datum:Temp:Abs-Feuchte:Windchill:Wind:
Aussen-T/F 201 23-09-2015 16:40:00 13.1 C 10.61 g/m*3 13.1 C 1.6 km/h
202 23-09-2015 16:45:00 13.1 C 10.61 g/m*3 13.1 C 1.6 km/h
203 23-09-2015 16:50:00 13.1 C 10.73 g/m*3 13.1 C 3.2 km/h
204 23-09-2015 16:55:00 13.1 C 10.73 g/m*3 13.1 C 9.7 km/h
205 23-09-2015 17:00:00 13.1 C 10.73 g/m*3 13.1 C 4.8 km/h
206 23-09-2015 17:05:00 13.1 C 10.61 g/m*3 13.1 C 8.1 km/h
207 23-09-2015 17:10:00 13.1 C 10.61 g/m*3 13.1 C 6.4 km/h
208 23-09-2015 17:15:00 13.1 C 10.61 g/m*3 13.1 C 8.1 km/h
209 23-09-2015 17:20:00 13.1 C 10.61 g/m*3 13.1 C 8.1 km/h
210 23-09-2015 17:25:00 13 C 10.55 g/m*3 13 C 3.2 km/h
211 23-09-2015 17:30:00 12.9 C 10.48 g/m*3 12.9 C 3.2 km/h
212 23-09-2015 17:35:00 12.9 C 10.48 g/m*3 12.9 C 4.8 km/h
213 23-09-2015 17:40:00 12.8 C 10.53 g/m*3 12.8 C 4.8 km/h
214 23-09-2015 17:45:00 12.8 C 10.53 g/m*3 12.8 C 11.3 km/h
215 23-09-2015 17:50:00 12.8 C 10.53 g/m*3 12.8 C 11.3 km/h
216 23-09-2015 17:55:00 12.8 C 10.53 g/m*3 12.8 C 16.1 km/h
217 23-09-2015 18:00:00 12.8 C 10.53 g/m*3 12.8 C 4.8 km/h
218 23-09-2015 18:05:00 12.9 C 10.59 g/m*3 12.9 C 3.2 km/h
219 23-09-2015 18:10:00 12.9 C 10.59 g/m*3 12.9 C 9.7 km/h
220 23-09-2015 18:15:00 12.9 C 10.59 g/m*3 12.9 C 8.1 km/h
221 23-09-2015 18:20:00 12.9 C 10.59 g/m*3 12.9 C 4.8 km/h
222 23-09-2015 18:25:00 12.9 C 10.59 g/m*3 12.9 C 8.1 km/h
223 23-09-2015 18:30:00 12.9 C 10.59 g/m*3 12.9 C 4.8 km/h
224 23-09-2015 18:35:00 12.9 C 10.59 g/m*3 12.9 C 3.2 km/h
225 23-09-2015 18:40:00 12.9 C 10.59 g/m*3 12.9 C 1.6 km/h
Sensor: Nr:Datum:Temp:Abs-Feuchte:Windchill:Wind:
Aussen-T/F 226 23-09-2015 18:45:00 12.9 C 10.59 g/m*3 12.9 C 1.6 km/h
227 23-09-2015 18:50:00 12.9 C 10.59 g/m*3 12.9 C 4.8 km/h
228 23-09-2015 18:55:00 12.9 C 10.59 g/m*3 12.9 C 1.6 km/h
229 23-09-2015 19:00:00 12.8 C 10.53 g/m*3 12.8 C 0 km/h
230 23-09-2015 19:05:00 12.8 C 10.53 g/m*3 12.8 C 3.2 km/h
231 23-09-2015 19:10:00 12.8 C 10.53 g/m*3 12.8 C 4.8 km/h
232 23-09-2015 19:15:00 12.8 C 10.53 g/m*3 12.8 C 3.2 km/h
233 23-09-2015 19:20:00 12.8 C 10.53 g/m*3 12.8 C 4.8 km/h
234 23-09-2015 19:25:00 12.8 C 10.53 g/m*3 12.8 C 1.6 km/h
235 23-09-2015 19:30:00 12.8 C 10.53 g/m*3 12.8 C 3.2 km/h
236 23-09-2015 19:35:00 12.8 C 10.53 g/m*3 12.8 C 3.2 km/h
237 23-09-2015 19:40:00 12.8 C 10.53 g/m*3 12.8 C 8.1 km/h
238 23-09-2015 19:45:00 12.8 C 10.53 g/m*3 12.8 C 1.6 km/h
239 23-09-2015 19:50:00 12.8 C 10.53 g/m*3 12.8 C 0 km/h
240 23-09-2015 19:55:00 12.8 C 10.53 g/m*3 12.8 C 4.8 km/h
241 23-09-2015 20:00:00 12.8 C 10.53 g/m*3 12.8 C 0 km/h
242 23-09-2015 20:05:00 12.8 C 10.53 g/m*3 12.8 C 1.6 km/h
243 23-09-2015 20:10:00 12.8 C 10.53 g/m*3 12.8 C 1.6 km/h
244 23-09-2015 20:15:00 12.8 C 10.53 g/m*3 12.8 C 1.6 km/h
245 23-09-2015 20:20:00 12.8 C 10.42 g/m*3 12.8 C 0 km/h
246 23-09-2015 20:25:00 12.8 C 10.53 g/m*3 12.8 C 0 km/h
247 23-09-2015 20:30:00 12.7 C 10.46 g/m*3 12.7 C 1.6 km/h
248 23-09-2015 20:35:00 12.7 C 10.46 g/m*3 12.7 C 0 km/h
249 23-09-2015 20:40:00 12.7 C 10.46 g/m*3 12.7 C 0 km/h
250 23-09-2015 20:45:00 12.7 C 10.46 g/m*3 12.7 C 0 km/h
Sensor: Nr:Datum:Temp:Abs-Feuchte:Windchill:Wind:
Aussen-T/F 251 23-09-2015 20:50:00 12.7 C 10.46 g/m*3 12.7 C 0 km/h
252 23-09-2015 20:55:00 12.6 C 10.4 g/m*3 12.6 C 0 km/h
253 23-09-2015 21:00:00 12.6 C 10.4 g/m*3 12.6 C 0 km/h
254 23-09-2015 21:05:00 12.6 C 10.4 g/m*3 12.6 C 0 km/h
255 23-09-2015 21:10:00 12.5 C 10.33 g/m*3 12.5 C 0 km/h
256 23-09-2015 21:15:00 12.5 C 10.33 g/m*3 12.5 C 0 km/h
257 23-09-2015 21:20:00 12.4 C 10.27 g/m*3 12.4 C 0 km/h
258 23-09-2015 21:25:00 12.4 C 10.27 g/m*3 12.4 C 0 km/h
259 23-09-2015 21:30:00 12.4 C 10.38 g/m*3 12.4 C 1.6 km/h
260 23-09-2015 21:35:00 12.4 C 10.38 g/m*3 12.4 C 1.6 km/h
261 23-09-2015 21:40:00 12.4 C 10.38 g/m*3 12.4 C 0 km/h
262 23-09-2015 21:45:00 12.4 C 10.38 g/m*3 12.4 C 0 km/h
263 23-09-2015 21:50:00 12.4 C 10.38 g/m*3 12.4 C 1.6 km/h
264 23-09-2015 21:55:00 12.4 C 10.38 g/m*3 12.4 C 4.8 km/h
265 23-09-2015 22:00:00 12.4 C 10.38 g/m*3 12.4 C 3.2 km/h
266 23-09-2015 22:05:00 12.3 C 10.32 g/m*3 12.3 C 1.6 km/h
267 23-09-2015 22:10:00 12.3 C 10.32 g/m*3 12.3 C 4.8 km/h
268 23-09-2015 22:15:00 12.3 C 10.32 g/m*3 12.3 C 0 km/h
269 23-09-2015 22:20:00 12.3 C 10.32 g/m*3 12.3 C 0 km/h
270 23-09-2015 22:25:00 12.3 C 10.32 g/m*3 12.3 C 0 km/h
271 23-09-2015 22:30:00 12.2 C 10.36 g/m*3 12.2 C 0 km/h
272 23-09-2015 22:35:00 12.2 C 10.36 g/m*3 12.2 C 0 km/h
273 23-09-2015 22:40:00 12.2 C 10.36 g/m*3 12.2 C 0 km/h
274 23-09-2015 22:45:00 12.2 C 10.36 g/m*3 12.2 C 0 km/h
275 23-09-2015 22:50:00 12.2 C 10.36 g/m*3 12.2 C 0 km/h
Sensor: Nr:Datum:Temp:Abs-Feuchte:Windchill:Wind:
Aussen-T/F 276 23-09-2015 22:55:00 12.1 C 10.29 g/m*3 12.1 C 0 km/h
277 23-09-2015 23:00:00 12.1 C 10.29 g/m*3 12.1 C 0 km/h
278 23-09-2015 23:05:00 12.1 C 10.29 g/m*3 12.1 C 0 km/h
279 23-09-2015 23:10:00 12.1 C 10.29 g/m*3 12.1 C 0 km/h
280 23-09-2015 23:15:00 12.1 C 10.29 g/m*3 12.1 C 0 km/h
281 23-09-2015 23:20:00 12.1 C 10.29 g/m*3 12.1 C 3.2 km/h
282 23-09-2015 23:25:00 12.1 C 10.29 g/m*3 12.1 C 8.1 km/h
283 23-09-2015 23:30:00 12.1 C 10.29 g/m*3 12.1 C 8.1 km/h
284 23-09-2015 23:35:00 12.1 C 10.29 g/m*3 12.1 C 3.2 km/h
285 23-09-2015 23:40:00 12 C 10.23 g/m*3 12 C 0 km/h
286 23-09-2015 23:45:00 12 C 10.23 g/m*3 12 C 0 km/h
287 23-09-2015 23:50:00 12 C 10.23 g/m*3 12 C 1.6 km/h
288 23-09-2015 23:55:00 12 C 10.23 g/m*3 12 C 0 km/h

Legende:
   Min
   Max


Maximal/Minimal-Werte vom 23.09.2015 - 23.09.2015

Sensor Min Max Avg
Temp
(Aussen-T/F)
9.8 °C
23-09-2015  00:45:00
14.9 °C
23-09-2015  14:05:00
11.93 °C
Abs-Feuchte
(Aussen-T/F)
8.91 g/m*3
23-09-2015  00:45:00
11.03 g/m*3
23-09-2015  16:05:00
9.88 g/m*3
Windchill
(Aussen-T/F)
9.25 C
23-09-2015  00:35:00
14.9 C
23-09-2015  14:05:00
11.88 C

Die Daten stammen von einer Davis Vantage Pro 2 Wetter-Station und werden unter Linux mit der Software wview2wettercgi und aufbereitet. Alle Angaben erfolgen ohne Gewähr für ihre Vollständigkeit oder Richtigkeit.
Kontakt: Rainer Krienke krienke@uni-koblenz.de . Meine Webseiten an der Uni Koblenz oder privat.
Version: $Revision: 0.78 $